Wind_Speed
10 10 10 9 9 8 7 8 7 7 7 7 7 7 7 7 5 5 4 5 6 5 6 6 6 6 7 6 7 7 8 9 11 12 15 16 18 21 22 22 21 22 23 23 24 24 24 24 24 24 24 24 24 24 24 24 24 24 25 25 25 24 24 23 22 21 21 20 19 18 17 16 16 16
11 11 10 10 9 8 8 8 8 8 8 8 8 8 8 8 7 7 6 6 8 7 7 6 5 5 7 8 9 10 10 12 13 13 15 17 18 20 22 22 22 22 23 25 26 27 27 27 27 27 27 26 26 26 27 27 27 27 27 27 27 27 26 25 24 23 22 22 21 19 18 17 17 17
12 12 12 11 10 9 9 9 9 9 9 9 9 8 8 9 9 9 8 7 8 8 7 7 7 7 8 10 11 11 12 14 17 17 17 18 19 20 22 23 23 23 24 25 27 28 29 30 30 30 30 30 30 29 29 29 29 29 29 29 29 29 28 27 26 25 23 23 22 21 19 18 18 17
12 13 13 12 11 10 10 10 10 10 10 10 10 9 9 10 10 11 10 10 11 12 11 12 13 11 12 12 13 14 15 16 19 21 21 20 20 20 22 23 24 24 24 25 26 27 29 30 31 32 32 33 33 33 33 32 32 31 31 31 31 30 29 28 27 26 25 24 24 23 21 20 19 18
12 13 13 13 13 12 12 11 11 11 11 11 11 11 11 11 11 11 12 13 14 14 13 14 15 14 14 15 15 17 17 16 16 18 20 22 22 21 21 21 22 25 25 25 26 26 27 28 29 31 32 33 34 35 35 35 35 34 33 33 33 32 31 30 29 28 27 25 25 24 22 21 20 19
13 13 14 14 13 13 13 13 13 12 12 12 12 12 12 12 12 12 13 14 14 15 14 14 15 15 14 16 16 17 18 17 16 16 18 20 20 21 21 21 21 24 27 28 28 28 28 29 29 30 31 32 34 35 36 37 37 37 36 35 34 34 33 32 31 30 28 27 26 25 24 23 21 20
14 14 14 14 13 12 13 13 13 13 13 12 12 12 12 13 13 13 14 14 14 16 15 14 15 15 14 16 17 16 18 18 18 17 18 18 19 20 22 23 22 23 26 28 30 30 31 31 31 31 32 33 33 34 36 37 38 38 38 38 36 36 35 34 33 32 30 29 28 26 25 24 23 21
15 15 15 14 13 12 13 13 13 13 13 13 13 13 13 14 14 13 14 15 15 16 16 15 15 15 16 17 18 17 18 18 18 18 18 19 20 21 21 22 23 23 25 28 30 32 32 32 32 32 33 34 35 35 36 36 38 39 39 39 38 38 37 36 35 34 33 32 30 28 27 27 25 23
15 16 16 15 13 13 13 13 13 13 14 13 13 13 13 13 13 13 13 14 15 16 17 16 15 15 15 16 17 17 17 18 18 18 18 18 20 22 22 21 22 23 24 26 29 31 31 30 30 30 32 34 34 35 36 37 37 38 39 40 40 40 40 39 37 36 35 34 33 31 28 28 27 24
16 17 17 16 15 14 14 14 14 14 14 14 14 14 13 13 12 13 13 14 15 17 18 18 17 16 15 15 16 15 16 18 18 18 18 18 19 20 21 21 20 20 20 22 25 27 28 28 29 30 31 31 31 33 34 35 36 37 38 40 41 41 42 41 39 37 36 36 36 33 30 29 29 27
17 17 17 17 16 16 16 15 15 14 14 14 14 14 13 13 13 13 14 14 15 17 18 17 17 16 15 15 16 15 15 18 19 19 20 20 19 18 18 20 20 20 21 21 23 25 26 27 29 30 31 31 30 30 29 30 31 33 35 38 40 42 43 42 41 40 39 39 38 35 32 32 32 29
17 17 17 18 17 17 17 17 16 15 13 13 13 13 13 13 13 14 13 14 15 16 16 16 16 16 16 16 16 16 16 17 17 18 19 21 21 21 20 19 19 21 23 24 23 22 23 24 25 26 28 29 29 28 27 27 27 27 30 33 36 40 42 43 44 44 42 40 39 37 35 34 33 31
17 18 18 18 18 17 18 19 19 18 16 15 15 13 12 13 14 14 14 14 14 15 15 16 16 16 16 16 16 17 17 17 17 18 19 20 20 21 23 22 20 20 22 25 26 23 21 22 23 23 23 25 28 29 29 29 28 26 26 29 32 35 38 42 45 46 45 42 40 38 37 35 35 34
17 18 18 18 19 20 21 23 24 24 24 23 22 19 17 15 15 15 15 15 16 16 17 17 17 17 17 17 17 18 18 18 19 19 19 20 20 21 22 24 22 19 19 22 26 25 22 23 27 25 24 24 26 29 30 29 28 26 25 27 30 30 33 38 43 46 46 44 42 41 39 38 36 36
17 18 18 18 18 20 22 24 25 26 26 25 24 23 22 21 20 20 19 18 17 17 18 18 18 18 18 18 18 19 20 20 20 19 20 22 23 21 21 22 21 19 17 19 24 27 24 23 28 29 27 26 28 29 28 26 25 26 27 29 30 29 30 34 38 42 46 47 46 43 41 40 39 39
17 18 18 18 17 18 19 20 20 20 21 22 22 22 22 23 23 24 24 23 21 20 19 19 19 18 19 19 18 19 19 20 21 22 22 23 23 22 21 23 23 23 22 20 24 30 28 23 26 30 28 26 28 29 28 27 27 29 30 32 32 31 31 33 34 36 41 46 48 46 43 42 41 41
18 18 17 17 17 17 18 18 18 18 19 20 21 22 22 22 22 22 24 25 26 26 24 23 22 20 19 19 19 19 20 22 24 24 23 23 23 22 22 25 30 31 28 25 25 30 32 26 25 29 28 26 27 28 27 27 28 31 32 33 33 33 33 33 33 34 36 40 45 47 46 44 43 43
18 18 18 18 18 17 17 17 17 17 17 16 17 18 19 20 20 19 18 19 21 24 26 27 27 24 22 22 22 21 21 23 24 24 25 25 25 26 27 30 34 32 28 26 25 27 31 27 25 28 29 27 27 28 27 27 28 29 31 32 33 34 34 33 33 34 34 36 40 45 47 47 45 45
19 19 19 19 19 18 17 18 17 16 15 14 15 15 16 17 17 17 17 17 17 18 19 22 23 23 21 21 21 21 20 23 24 24 25 26 27 31 33 33 32 28 25 24 23 24 28 28 26 29 30 29 28 28 27 28 28 28 29 31 32 33 32 32 33 34 34 34 36 40 45 48 48 46
20 20 20 20 21 20 19 20 20 20 18 17 16 16 17 18 18 18 19 19 19 19 19 19 20 21 20 20 20 20 20 23 24 25 26 25 26 29 30 29 29 26 23 21 22 24 27 27 27 29 29 29 29 29 28 28 29 29 30 31 31 31 31 31 32 33 34 33 34 36 41 47 49 48
21 21 22 22 21 21 21 21 21 21 21 19 17 17 18 18 19 19 18 19 20 21 21 21 20 20 20 20 20 20 21 22 23 26 27 24 23 24 22 22 27 27 23 20 21 23 26 26 26 29 30 29 28 28 29 28 28 29 31 31 31 31 30 31 31 32 33 33 33 34 38 44 48 49
21 22 24 25 24 23 22 22 21 21 21 19 17 18 18 18 18 18 17 18 19 18 17 15 16 17 17 18 19 20 22 21 21 25 27 24 22 22 20 20 25 27 24 20 17 20 25 25 25 28 29 28 27 27 26 25 24 25 28 30 33 33 31 31 32 32 33 34 33 33 35 40 46 49
21 22 24 26 29 28 26 26 25 24 23 20 17 17 18 18 18 17 16 16 16 15 14 13 15 16 16 18 20 20 20 19 19 21 23 22 21 22 22 22 21 20 19 18 16 19 25 25 24 26 24 21 21 23 21 20 20 21 23 25 30 33 32 32 33 33 33 34 35 34 34 38 44 49
19 20 21 23 27 29 28 27 26 25 25 24 21 19 18 18 17 15 15 15 14 15 15 16 17 17 17 17 18 18 17 17 17 17 17 18 19 20 22 23 21 19 21 21 20 21 25 26 26 27 23 19 20 24 23 22 22 22 23 25 29 31 32 31 33 33 33 34 36 37 36 37 43 49
19 18 18 19 21 23 23 22 20 19 20 22 23 22 20 20 19 18 17 17 16 16 17 17 17 17 17 16 15 16 15 13 12 12 12 13 16 18 20 22 22 23 24 24 22 21 25 26 26 26 24 22 25 28 26 24 22 22 23 25 26 26 27 29 32 34 35 36 37 39 38 38 43 49
18 17 17 16 17 19 19 18 17 15 15 17 19 20 19 18 19 20 21 20 17 16 16 17 17 15 14 14 14 13 12 10 9 10 11 13 15 17 19 19 20 22 24 25 23 22 23 24 24 23 23 23 25 27 26 24 22 21 21 21 23 23 23 24 28 31 34 37 39 41 43 42 43 49
18 16 16 15 15 17 18 17 16 15 14 15 16 15 15 15 16 19 20 17 15 14 14 14 14 13 12 13 12 9 8 9 10 12 13 13 14 16 18 18 18 20 23 24 22 20 20 22 23 22 23 24 25 24 23 24 23 22 21 21 21 21 20 21 23 25 28 33 37 38 40 42 43 47
18 16 15 15 14 14 16 16 15 15 15 15 14 13 13 14 15 16 15 13 12 12 11 11 11 11 10 9 8 7 8 11 12 13 13 12 13 15 16 17 17 19 21 21 20 19 19 22 23 22 22 24 24 21 21 24 26 25 23 21 21 21 20 21 23 24 26 29 31 31 33 37 42 46
19 17 15 14 14 13 14 14 14 14 14 13 12 13 13 12 12 11 10 10 11 11 10 9 9 9 7 6 7 9 10 11 10 11 11 12 12 13 14 15 17 17 17 17 17 18 19 20 22 22 22 23 24 24 24 25 26 25 23 22 23 22 20 20 22 23 23 23 25 28 32 37 42 46
20 18 16 14 13 13 14 13 11 11 12 12 11 12 12 10 9 9 9 9 9 9 8 8 7 6 5 6 7 8 9 8 8 9 11 13 12 12 12 15 16 15 14 14 15 17 18 18 19 21 22 23 24 25 25 26 26 26 24 23 23 21 18 18 21 23 23 21 21 23 27 33 40 47
22 18 18 18 15 14 15 14 11 11 11 11 10 10 9 8 8 10 10 10 8 7 7 6 5 5 5 6 6 7 7 7 8 9 11 12 12 12 13 14 15 15 14 14 14 15 17 17 18 19 21 22 23 24 26 27 27 27 26 25 22 20 19 18 19 21 23 25 23 20 21 27 36 44
21 16 17 17 14 13 13 12 11 12 11 11 10 10 8 7 8 10 9 8 7 5 4 4 4 4 4 4 6 7 7 7 8 9 10 10 11 13 13 13 14 15 15 14 14 16 17 18 18 19 20 21 23 25 25 24 24 25 26 26 23 22 22 20 18 19 22 25 26 23 22 26 34 41
19 17 16 16 14 13 13 12 12 12 11 10 9 9 8 6 5 5 5 4 4 3 2 3 3 3 3 4 5 6 7 7 8 8 9 10 11 12 12 12 12 13 14 14 15 17 18 19 19 20 20 19 20 20 19 19 20 23 26 26 25 25 25 22 19 19 19 21 24 22 19 22 30 37
18 16 17 16 16 15 15 14 13 12 11 9 8 7 8 6 5 4 3 3 3 2 2 2 1 2 3 4 5 6 7 7 7 7 8 9 10 11 11 11 12 13 14 15 15 17 19 21 22 21 20 18 15 14 17 20 21 22 25 25 24 25 26 25 25 22 18 19 22 18 13 15 22 29
17 15 16 16 15 15 13 12 12 11 10 9 7 5 5 5 4 4 3 3 2 1 1 1 1 2 2 3 4 5 6 7 7 7 7 8 9 10 10 11 12 13 14 14 15 17 19 22 23 22 21 19 14 10 15 23 24 24 25 26 25 25 25 25 25 24 19 18 19 15 11 12 16 23
15 14 13 11 11 12 11 9 10 9 9 9 7 6 6 5 4 4 4 3 2 1 1 1 1 2 2 3 4 4 5 6 6 6 7 7 8 10 10 11 11 12 13 13 14 16 18 20 23 22 19 17 13 9 13 22 26 25 27 28 27 25 24 23 22 20 14 13 15 15 13 14 17 23
15 15 15 13 12 11 9 8 8 8 7 7 7 6 5 5 4 4 3 3 2 1 1 1 1 1 1 2 3 4 5 5 5 5 6 7 8 9 10 11 11 12 13 13 13 15 17 18 20 21 17 13 10 10 15 21 24 26 30 30 27 25 24 21 17 13 7 3 7 10 12 15 19 24
14 16 18 18 17 14 11 9 8 7 7 6 6 5 5 4 4 4 3 3 2 1 0 1 0 1 2 2 3 4 4 4 4 5 5 6 7 8 9 9 10 11 12 13 13 13 15 16 19 19 17 12 10 10 15 20 23 26 30 31 28 24 21 17 12 8 6 6 7 9 13 17 22 25
11 12 13 15 15 14 13 11 9 7 7 6 5 5 5 4 4 4 4 3 2 1 1 1 1 2 3 2 3 3 3 4 4 4 5 5 6 7 8 8 8 9 11 12 13 13 14 16 18 18 17 15 13 13 14 17 20 23 25 27 27 22 18 14 10 7 8 11 15 18 20 22 25 27
12 12 11 11 11 11 11 11 9 8 7 6 5 4 4 4 4 4 4 3 2 1 2 2 2 2 2 2 3 3 3 3 3 4 4 4 4 6 7 7 7 9 10 11 12 13 13 15 16 16 15 14 14 14 13 13 16 18 20 23 24 20 14 11 9 7 9 14 21 26 27 27 27 27
13 13 11 10 10 10 9 9 9 8 7 6 5 4 4 3 3 3 4 4 2 2 2 2 2 3 3 2 3 3 2 2 3 3 4 4 4 4 6 7 7 8 9 10 10 11 12 12 13 14 14 14 14 14 12 12 15 17 19 21 23 20 15 11 10 11 12 16 23 26 26 26 26 25
14 13 11 11 11 10 9 9 8 7 6 6 5 5 5 4 3 3 4 3 1 2 3 3 3 4 4 3 3 3 3 2 2 3 3 4 4 4 4 5 6 7 8 8 8 9 9 10 11 12 14 14 14 14 12 12 13 15 15 16 19 21 19 16 14 15 14 15 18 20 20 21 20 18
13 13 12 13 13 12 11 10 10 8 6 6 6 5 6 5 4 4 4 3 3 4 5 4 4 5 5 5 4 4 3 3 3 3 3 3 4 4 5 5 6 7 7 6 7 7 8 9 10 11 12 13 14 13 12 12 12 12 12 12 13 17 18 17 15 16 16 15 14 14 15 17 16 14
12 12 12 13 13 12 11 10 10 8 6 5 5 5 5 5 5 5 4 4 4 5 5 5 6 6 6 6 6 6 4 3 4 4 4 4 4 4 4 5 5 6 6 6 6 7 8 9 10 10 12 12 12 12 11 11 10 10 10 10 11 12 14 14 15 16 17 17 16 13 14 17 19 21
12 13 14 14 12 11 11 10 9 7 5 4 4 3 3 4 4 3 2 3 3 4 5 6 7 7 7 7 7 7 6 5 5 5 5 5 5 5 4 5 6 6 6 6 7 9 10 10 10 10 10 10 10 9 9 9 8 7 8 8 9 10 11 11 13 15 18 19 18 14 13 15 18 21
Wind_Direction
238 238 236 236 242 243 241 244 245 243 243 247 253 254 259 266 278 291 296 294 291 280 268 254 218 225 246 240 241 256 260 263 267 264 262 260 259 262 266 265 262 260 260 261 261 261 260 259 259 259 258 258 257 257 256 254 252 251 251 252 253 254 257 261 264 268 270 273 275 275 274 276 280 283
238 238 237 235 239 241 241 243 244 241 238 239 245 248 251 251 256 272 285 289 289 286 277 264 234 235 250 245 250 262 265 275 286 279 269 266 263 264 270 271 269 265 262 261 261 261 261 261 260 260 259 258 258 257 257 256 255 254 253 253 254 256 258 261 263 266 268 270 271 271 269 270 275 279
237 239 238 237 238 239 241 244 245 242 238 239 243 245 249 250 250 259 269 276 279 280 278 277 273 263 257 254 258 262 263 273 286 287 280 275 272 270 270 271 270 268 266 264 263 262 261 261 261 260 260 259 258 257 257 257 256 256 256 255 255 256 258 259 261 263 265 267 268 267 266 265 269 274
237 238 239 238 238 239 240 242 245 244 239 239 242 242 244 247 247 251 256 262 269 273 275 279 279 274 268 264 262 264 266 271 281 288 287 283 280 275 271 270 270 270 268 266 265 265 264 263 261 261 260 259 259 258 257 257 256 256 256 256 256 256 257 258 259 261 263 266 267 265 262 261 263 269
238 239 240 239 238 238 240 242 244 245 241 238 239 239 238 240 241 242 246 255 267 272 271 271 274 274 272 269 263 262 268 270 271 278 284 286 284 277 272 268 269 273 275 273 269 267 266 265 264 262 261 260 259 258 258 257 256 256 256 255 255 255 256 256 257 259 261 263 264 264 260 256 258 263
237 239 241 241 239 237 238 241 244 246 245 241 239 238 236 238 240 237 237 247 263 272 272 270 272 272 269 268 265 261 265 270 267 264 269 274 276 274 273 269 264 268 276 280 280 276 271 268 266 264 262 261 260 259 258 257 256 255 255 254 255 255 254 255 256 257 258 260 261 260 256 252 253 258
235 238 241 243 242 239 237 239 242 246 246 244 243 242 239 241 243 240 237 242 256 269 273 271 271 273 270 268 269 265 264 268 268 264 263 265 265 267 270 271 269 268 272 278 283 283 280 276 272 269 267 264 262 261 259 258 257 256 255 254 255 255 254 254 254 254 255 257 257 257 253 248 247 251
234 237 241 243 244 241 240 241 242 244 243 241 241 242 242 243 244 243 241 242 250 265 274 273 271 274 274 271 271 270 268 267 265 263 263 265 265 265 265 266 268 270 273 277 281 282 281 279 277 275 272 269 266 264 262 260 259 257 256 255 254 254 254 253 252 252 252 254 255 254 251 246 243 245
234 237 240 244 244 241 241 242 243 244 242 241 241 242 243 243 244 246 246 247 252 261 271 277 278 277 275 274 274 274 274 274 271 267 263 262 266 270 271 268 266 269 273 277 281 282 283 283 281 278 276 274 272 269 267 265 263 261 258 255 253 253 253 252 251 251 251 252 254 252 248 244 240 240
234 237 240 243 243 241 240 241 243 245 243 243 243 243 245 246 247 251 253 255 258 262 267 274 278 279 278 279 281 282 283 284 283 281 276 270 265 266 268 270 271 271 269 269 273 279 282 283 283 284 282 280 278 276 274 271 268 266 263 259 255 253 252 251 250 250 249 249 250 249 247 243 238 235
236 238 241 243 242 239 239 239 242 245 246 247 247 246 247 248 251 255 255 256 259 264 267 269 273 277 280 282 285 288 289 287 285 285 287 287 283 275 271 273 278 280 277 274 272 275 278 278 280 284 286 284 283 282 280 278 274 269 266 263 259 255 252 251 250 248 247 246 246 246 244 241 236 233
238 240 242 244 243 241 239 239 240 242 244 248 251 251 250 250 253 257 258 258 260 263 267 270 273 278 280 281 284 288 289 287 285 283 286 291 295 294 289 286 287 287 285 284 282 281 282 281 279 279 281 280 281 283 283 281 278 274 270 267 263 258 255 251 248 247 245 245 244 244 243 239 233 230
239 242 244 246 245 243 242 242 244 246 247 251 254 254 253 254 257 259 260 261 263 265 268 271 274 277 278 279 282 286 288 288 287 285 283 284 289 294 295 295 292 286 283 286 287 284 284 286 283 278 274 274 276 278 279 278 275 273 272 269 265 262 258 254 249 246 243 243 243 242 241 238 232 228
239 241 245 247 247 247 247 248 251 256 259 262 263 261 258 257 258 261 262 263 265 267 270 273 276 277 278 281 286 289 290 290 290 289 287 286 290 294 295 294 293 289 285 286 286 284 285 289 290 285 278 278 276 270 270 273 272 271 273 271 267 264 261 257 254 250 244 242 241 239 238 236 231 227
239 241 244 246 248 249 250 253 257 262 265 266 268 267 265 261 258 258 261 264 266 268 270 272 275 278 280 283 287 288 289 290 293 295 295 294 294 295 295 294 294 294 293 289 286 285 285 286 288 287 284 284 282 271 266 267 267 268 275 276 273 269 262 258 257 255 250 244 240 237 235 233 229 226
236 240 242 244 245 245 247 250 255 262 267 269 270 273 273 269 264 260 259 260 262 265 270 273 274 276 280 283 285 287 290 293 294 294 294 291 290 291 291 290 290 292 295 293 288 287 287 284 283 286 286 287 286 280 273 268 262 264 273 279 280 277 270 263 259 256 253 248 242 237 234 232 229 226
234 236 238 241 243 244 245 246 247 252 260 267 272 276 278 277 274 270 265 261 259 259 263 268 270 273 276 279 283 286 290 292 293 293 292 289 288 288 288 288 290 292 294 292 287 285 286 286 284 283 285 288 287 282 278 273 265 261 266 276 281 280 276 272 266 259 255 250 244 238 234 231 229 226
234 234 236 239 242 243 242 242 243 245 248 256 264 271 275 277 277 278 275 270 264 260 259 261 264 266 269 275 281 285 287 286 287 289 290 291 291 289 287 289 290 290 289 287 282 279 281 284 283 282 284 288 288 284 282 280 273 264 263 271 279 281 279 275 270 264 259 252 245 240 235 231 228 226
236 236 237 240 244 245 243 241 241 242 244 249 255 261 266 269 269 269 270 270 268 265 263 262 262 263 265 271 277 280 282 282 282 286 290 293 293 291 291 291 289 288 287 282 275 275 281 286 286 284 286 290 289 286 285 283 278 269 265 268 276 282 283 277 270 267 262 254 247 241 236 232 228 225
236 237 237 240 244 245 245 244 244 245 248 252 257 261 264 266 266 265 267 266 263 262 265 265 264 267 270 274 280 283 283 282 284 287 291 292 291 290 292 293 291 291 293 291 286 285 288 292 291 289 290 291 289 286 285 283 279 273 268 268 274 281 284 280 272 267 263 256 248 243 238 232 228 225
236 236 236 237 243 246 247 247 249 252 254 254 256 261 265 267 268 268 269 271 268 268 270 270 271 275 277 280 286 290 289 288 289 286 285 286 287 287 289 292 293 295 297 299 297 291 290 293 294 293 294 293 288 284 283 281 278 273 269 266 269 275 281 281 275 267 262 257 250 245 239 233 229 225
235 237 237 237 240 243 247 249 250 252 255 253 254 261 265 265 266 269 272 275 276 277 278 279 281 284 283 285 290 291 291 294 290 280 277 282 285 286 286 290 293 295 297 302 306 297 294 296 296 296 297 295 289 286 285 283 280 276 271 267 266 268 275 280 277 268 261 257 251 247 242 235 228 222
235 237 239 241 243 245 249 253 255 255 255 253 253 258 263 265 266 271 273 274 280 287 290 292 291 289 290 292 293 292 292 293 287 278 278 281 282 283 287 292 295 296 297 306 313 303 297 298 299 299 301 297 293 292 290 286 284 280 275 271 267 267 270 276 276 268 261 257 251 247 243 235 225 218
234 235 237 242 247 251 255 258 259 259 259 257 256 256 260 264 267 270 275 281 292 299 295 293 291 290 291 292 290 290 292 291 287 280 275 274 274 278 285 290 292 291 293 302 310 304 298 299 299 298 297 294 295 297 296 292 291 287 281 276 273 271 270 270 267 262 258 256 251 247 244 235 224 217
234 236 237 239 244 251 258 262 263 263 263 262 260 258 259 263 265 268 274 283 292 294 289 288 288 288 291 294 293 293 294 292 289 283 275 272 277 282 286 291 293 291 292 299 307 307 302 299 299 300 298 294 293 297 299 297 293 289 285 278 273 271 267 263 260 258 256 254 249 244 241 234 225 219
235 237 238 238 241 247 256 264 267 270 271 269 266 264 266 269 270 271 274 279 282 283 283 284 285 286 289 293 292 290 291 294 297 297 294 292 291 289 289 292 293 292 293 300 305 306 303 300 302 305 303 299 298 300 301 301 299 298 295 287 280 276 269 262 259 256 254 254 251 245 239 233 227 221
237 241 241 241 242 246 255 265 272 275 277 275 274 274 274 273 273 273 275 275 273 274 276 279 281 284 286 286 287 288 296 304 306 306 304 300 295 292 290 289 289 289 293 300 305 306 303 301 303 304 303 303 304 302 301 304 305 305 303 297 290 283 272 263 260 254 249 251 252 247 236 230 227 222
239 242 244 243 244 248 256 264 270 275 279 279 279 277 270 267 268 270 270 268 265 265 268 272 277 282 282 281 286 298 308 311 311 310 308 303 298 295 294 295 296 295 296 301 307 309 306 304 306 306 304 303 303 302 303 304 305 306 305 301 296 290 279 271 264 254 246 247 247 242 231 226 224 219
240 244 246 248 250 252 255 262 271 278 282 279 270 265 262 259 260 262 262 261 260 259 262 268 275 280 283 288 297 308 314 317 318 315 311 309 307 304 304 304 304 304 305 308 314 317 316 314 313 311 308 304 301 300 302 302 303 306 306 304 302 297 285 273 263 253 245 239 235 234 233 230 224 215
238 246 251 253 255 255 256 263 270 270 272 272 264 261 260 255 250 251 253 255 257 258 263 272 278 285 296 302 307 314 319 322 323 322 319 318 319 321 322 317 313 315 319 321 324 327 325 322 319 314 310 305 302 300 301 302 304 306 305 303 303 299 288 273 261 252 244 233 225 228 233 234 228 216
237 245 250 251 255 261 262 264 262 255 257 262 261 259 258 250 241 238 237 239 246 255 264 272 281 290 300 308 316 324 330 331 333 333 329 325 326 331 329 321 318 325 331 331 333 337 336 331 327 321 314 309 305 304 303 303 303 303 305 305 302 299 294 282 265 255 247 238 231 227 224 227 225 215
230 235 244 246 248 254 256 255 251 248 247 248 248 248 247 242 233 226 223 226 232 238 250 266 280 293 304 321 334 337 339 340 337 336 334 331 332 332 328 324 326 332 334 334 337 343 345 342 337 330 322 315 311 311 311 311 313 317 322 323 320 317 312 298 279 267 257 241 229 223 220 221 219 212
213 213 226 233 232 233 237 236 236 237 236 235 237 234 225 217 214 211 204 204 207 208 233 257 275 305 323 340 348 344 341 338 334 335 338 337 333 330 327 329 334 335 333 335 342 347 348 347 343 337 330 323 318 324 336 344 345 344 341 335 331 328 325 318 307 294 273 244 226 219 216 216 214 208
197 199 211 221 222 223 226 228 226 225 224 221 217 215 210 198 189 191 183 170 179 192 221 244 280 338 349 355 356 344 337 333 331 334 338 336 332 333 335 336 337 338 338 340 346 350 349 348 346 343 339 337 333 342 1 8 2 353 344 337 332 329 326 325 324 315 290 250 229 217 203 200 203 200
189 197 207 214 215 214 215 216 213 208 204 196 188 191 196 187 181 188 179 156 161 196 210 217 357 14 14 1 349 338 331 329 330 336 341 341 339 339 340 340 337 340 345 347 350 353 352 352 351 349 346 348 348 353 5 5 1 356 349 341 334 330 327 325 324 319 298 254 225 201 173 169 181 185
184 192 194 188 186 191 192 191 192 192 186 177 173 176 182 177 171 177 182 175 173 182 179 119 43 30 14 346 330 323 323 324 330 340 343 346 348 345 344 345 343 343 347 349 351 354 356 356 356 353 350 351 352 353 357 357 358 0 357 347 336 332 331 327 322 318 298 249 214 190 169 157 162 171
172 174 170 159 158 167 170 169 174 177 169 162 161 168 175 169 157 160 177 182 168 139 90 77 58 351 317 316 311 313 324 328 333 342 345 350 355 351 346 348 349 346 346 349 352 356 359 359 358 357 354 352 349 346 345 347 352 360 360 353 343 338 336 333 329 330 326 253 197 179 164 150 151 163
162 165 164 160 157 154 151 154 161 160 151 147 147 153 159 156 150 152 159 161 150 133 90 90 104 264 268 292 303 312 331 338 333 340 352 358 359 354 348 348 348 344 345 351 358 0 2 2 0 358 355 352 348 342 338 342 350 357 358 357 353 346 344 345 346 1 35 75 109 129 140 142 144 152
147 149 149 148 146 141 138 141 147 145 140 138 141 148 155 155 153 155 155 147 141 141 184 208 242 260 261 283 302 308 326 340 341 348 359 3 2 358 350 343 342 343 347 355 2 4 6 7 3 0 358 354 348 341 335 341 351 355 357 2 3 357 354 359 7 35 77 97 108 115 122 129 136 144
142 143 141 134 127 126 128 132 135 132 129 129 134 145 156 156 155 157 152 141 141 177 208 216 247 268 271 288 308 309 316 336 347 351 354 354 356 356 347 335 334 344 352 358 3 7 11 10 5 4 4 0 354 349 347 352 360 1 5 14 16 12 8 13 28 61 95 112 117 118 121 126 133 140
140 140 139 132 125 126 129 129 128 125 122 126 137 149 160 162 161 161 148 133 138 200 216 228 268 288 293 295 302 304 312 335 351 352 351 344 339 339 333 324 330 347 357 2 5 10 13 11 7 8 10 7 4 6 8 9 9 9 14 24 31 33 36 46 66 86 104 120 124 123 126 130 132 135
129 126 123 122 125 130 128 123 122 121 125 139 156 168 174 173 166 153 142 129 151 224 236 254 274 284 289 290 291 296 300 317 336 341 342 340 337 334 331 333 341 352 359 2 5 10 12 10 9 13 16 13 13 17 19 19 18 17 19 27 37 45 52 64 83 94 100 111 119 122 126 129 130 130
115 114 114 117 120 119 116 118 124 123 125 142 158 170 181 187 191 190 191 201 226 239 252 263 267 273 283 288 288 288 287 301 319 320 317 325 328 331 339 345 343 344 354 2 3 5 10 11 12 17 20 19 18 20 22 26 28 30 33 37 41 48 54 64 80 91 97 102 105 113 122 128 132 138
112 113 115 117 116 111 111 118 123 118 112 124 141 151 167 184 200 213 220 227 238 248 258 262 262 268 275 279 281 279 280 290 298 294 294 302 300 302 320 336 334 335 348 360 0 3 8 8 10 17 21 22 21 21 22 24 27 33 39 41 39 42 49 57 68 77 83 88 95 107 124 132 139 146
114 118 120 121 121 120 119 119 118 111 101 102 110 117 130 153 177 198 212 227 242 252 258 263 269 275 277 279 280 279 280 286 285 276 279 292 293 289 304 325 330 332 338 346 354 358 359 359 5 13 17 19 22 23 20 19 23 31 36 35 34 38 44 51 58 62 63 67 76 94 116 128 136 142
Height
866 866 867 867 867 867 867 867 867 868 868 868 869 869 869 870 870 870 868 865 862 861 861 860 861 862 862 862 862 861 861 861 861 860 859 859 858 857 856 856 856 856 856 855 855 854 854 854 854 854 854 854 854 854 854 854 854 854 854 854 853 853 853 852 852 852 851 851 851 851 850 850 849 848
865 865 865 866 866 866 866 866 866 866 867 867 867 868 868 868 868 868 868 865 862 861 860 859 859 860 860 861 860 860 859 858 858 858 857 856 855 855 854 853 853 853 853 852 851 851 851 850 850 850 851 851 851 851 850 850 850 850 850 850 850 850 850 849 849 849 849 848 848 848 848 848 847 846
863 863 864 864 864 865 865 865 865 865 865 865 866 866 866 867 867 866 867 865 861 860 860 859 859 859 859 859 858 858 857 856 855 855 854 853 852 852 851 850 850 850 849 848 848 847 847 847 847 847 847 847 847 847 846 847 846 847 847 846 846 846 846 846 846 846 846 846 846 846 846 846 845 845
861 861 862 863 863 863 863 863 863 863 863 863 864 864 864 865 865 865 865 863 860 859 860 859 858 858 857 857 856 855 854 853 852 851 850 850 849 848 847 846 846 846 845 845 844 843 843 842 842 842 842 842 842 842 842 842 842 842 842 842 842 842 842 842 842 842 843 843 843 843 844 844 844 843
859 860 860 861 861 862 862 862 861 861 861 862 862 862 862 862 862 862 863 861 858 857 858 857 856 855 855 854 853 852 851 850 850 848 847 846 845 844 844 843 842 841 841 840 839 839 838 838 838 837 837 837 837 836 836 837 837 837 837 837 837 838 838 838 838 839 839 840 840 841 841 842 842 841
858 858 858 859 859 860 860 860 860 859 859 859 859 859 859 859 859 859 859 859 856 855 855 855 853 853 852 851 850 849 848 847 847 846 845 843 842 841 840 839 838 837 835 835 834 834 833 833 832 832 832 831 831 831 831 831 831 831 831 832 833 833 834 834 835 835 835 836 836 837 838 838 839 839
855 855 856 856 857 857 858 858 858 857 857 857 857 857 857 857 857 857 857 856 855 853 852 852 851 850 849 848 847 846 845 844 843 842 842 840 839 837 836 835 834 833 832 831 830 828 827 827 826 827 827 826 826 825 825 825 825 826 826 827 828 829 829 830 830 831 831 831 832 832 833 834 835 836
853 853 853 854 854 855 855 855 855 855 855 855 855 855 854 854 854 854 854 853 853 851 849 849 848 848 847 846 844 844 842 841 840 838 837 837 835 834 833 831 830 829 828 827 824 821 820 820 821 822 821 820 820 820 820 820 820 821 822 823 824 824 824 825 825 826 826 827 827 828 828 829 831 832
850 850 851 851 852 852 852 853 853 852 852 852 852 852 852 852 852 852 852 851 851 850 848 846 846 845 844 843 842 841 840 839 837 835 834 832 831 829 828 827 826 824 823 821 817 814 814 814 815 816 815 814 815 815 815 815 816 816 817 817 817 818 818 819 820 821 822 823 823 822 823 825 827 829
847 847 848 848 849 849 850 850 850 850 850 850 850 850 850 850 849 849 849 849 848 847 846 844 843 843 842 841 839 839 839 837 835 833 831 830 828 826 824 823 822 821 819 817 813 811 811 810 810 810 809 809 810 810 810 811 811 812 812 812 812 812 812 812 814 816 816 816 817 817 819 821 823 825
845 845 845 845 846 846 846 847 847 847 848 847 847 847 847 847 847 847 846 846 845 845 844 842 841 840 839 838 837 837 837 835 834 832 830 828 826 824 823 821 820 819 817 814 812 810 809 807 807 805 804 804 805 805 805 806 806 807 806 806 806 805 805 807 809 809 808 808 810 813 815 817 819 821
842 842 842 842 843 843 843 844 845 845 845 845 845 845 845 845 845 844 844 843 843 842 841 840 839 838 837 836 835 834 834 832 831 830 828 825 823 822 821 819 819 817 814 812 810 809 807 804 803 801 799 799 799 799 800 800 800 801 801 800 798 798 799 801 801 800 801 803 806 808 810 812 814 817
839 839 839 839 840 840 840 841 841 842 842 843 843 843 843 843 843 842 842 841 840 840 838 837 837 836 834 833 831 831 830 829 828 827 825 822 820 819 817 816 816 815 811 808 807 807 806 803 800 799 797 794 793 792 792 792 794 795 795 792 790 791 792 792 791 792 795 798 801 803 805 807 810 812
835 836 836 836 837 837 837 838 838 838 839 839 839 840 841 841 841 840 839 838 838 837 836 835 834 833 831 830 829 828 827 827 825 824 822 820 818 816 813 811 812 812 810 805 802 802 804 802 798 796 795 793 790 787 785 785 787 789 788 785 783 784 785 784 784 786 790 792 794 797 799 801 804 806
832 833 833 833 833 834 834 834 834 834 835 835 835 836 836 837 838 837 837 836 835 835 834 833 832 830 829 828 828 827 825 824 823 821 820 818 816 814 811 807 806 808 808 804 799 795 798 800 795 791 791 791 788 786 784 783 783 783 782 779 777 778 778 777 778 781 783 785 787 790 793 795 798 800
829 829 830 830 830 830 830 831 831 831 831 831 831 832 832 833 833 834 834 834 833 833 832 831 830 829 827 827 826 825 823 822 821 820 819 817 814 812 810 805 803 804 805 804 798 791 791 794 792 787 786 786 784 782 782 782 781 779 777 775 773 773 773 772 773 775 776 779 781 784 787 789 791 794
826 826 826 827 827 827 827 828 828 828 828 828 828 828 828 828 828 829 829 830 830 831 830 829 828 827 826 825 824 823 822 820 819 817 815 814 812 809 807 804 800 801 802 801 797 790 786 788 788 783 781 781 779 777 777 778 776 775 774 772 770 770 769 768 768 769 770 773 775 778 781 783 786 788
822 823 823 823 823 824 824 825 825 826 826 826 826 825 825 824 824 824 825 825 825 826 826 826 825 825 824 823 822 821 821 819 817 815 813 812 809 806 803 801 798 798 798 797 795 788 782 783 783 779 777 777 775 773 772 773 771 769 769 768 767 766 765 764 765 765 765 767 769 772 775 777 780 783
819 819 820 820 819 820 821 821 822 823 824 824 824 824 823 822 822 821 821 822 821 821 822 821 821 822 822 821 820 819 818 816 814 813 811 810 807 803 799 797 795 794 794 794 791 784 779 779 778 774 773 773 771 769 769 768 766 764 763 763 762 762 761 761 761 761 761 762 764 766 769 772 775 778
816 816 816 816 816 816 817 817 818 820 821 821 821 821 821 820 820 819 819 819 819 819 819 819 819 819 819 818 818 817 816 814 812 811 810 808 805 802 797 793 791 790 790 790 788 782 777 777 775 770 769 769 767 765 765 764 762 760 758 758 757 757 757 757 756 756 756 757 759 761 764 767 770 774
812 812 812 813 813 813 813 813 815 816 817 818 819 819 818 818 817 816 816 816 816 816 816 815 815 815 815 815 814 813 812 811 810 809 807 805 804 801 797 793 788 786 786 788 786 781 776 775 773 768 766 765 763 761 760 759 757 755 754 753 753 752 752 752 751 751 752 753 755 757 759 762 766 770
808 808 808 809 809 809 809 810 812 813 814 815 816 816 816 815 814 814 814 814 813 812 812 812 812 812 812 811 810 810 809 808 808 806 803 802 801 798 796 793 788 784 783 784 784 780 775 773 771 767 762 760 758 757 755 754 753 751 750 749 748 748 748 748 748 748 748 748 750 752 754 757 761 766
804 804 804 804 804 805 805 806 808 810 811 812 813 814 813 812 812 812 812 812 811 811 810 810 810 809 808 808 807 806 805 804 804 803 801 800 799 796 794 792 789 783 780 781 782 779 774 771 769 767 761 755 751 752 752 751 750 749 747 745 744 744 745 745 745 744 745 745 746 747 749 752 757 761
800 800 800 800 800 800 801 802 804 806 808 809 810 811 810 810 810 810 810 810 809 809 808 808 808 807 806 805 804 803 802 801 800 799 798 798 797 795 792 791 789 784 779 779 780 777 773 770 767 765 763 756 748 747 748 748 747 747 745 743 741 740 741 742 741 741 741 742 742 743 745 747 751 754
796 796 797 797 797 797 798 799 801 802 804 806 807 808 807 807 808 808 808 808 808 808 807 806 806 805 804 803 802 801 800 799 798 797 796 796 795 793 791 788 786 783 779 778 779 776 772 769 766 763 761 757 750 745 744 744 744 743 742 740 739 738 738 737 737 737 737 737 738 739 740 742 745 748
793 793 794 795 795 795 796 798 799 800 802 802 803 804 804 805 805 806 806 806 806 806 805 804 804 803 802 801 800 800 799 798 797 796 795 794 793 791 789 788 785 782 778 777 777 775 772 768 766 762 759 755 751 746 743 740 740 740 739 738 737 736 736 735 734 733 733 732 733 733 733 735 737 740
790 791 792 792 793 794 795 796 797 798 799 800 800 801 802 802 803 803 803 804 804 804 803 803 802 801 800 800 799 798 797 796 795 794 793 792 791 789 787 786 784 781 778 776 775 774 771 767 765 763 759 754 750 746 742 739 738 737 736 735 734 734 733 733 732 731 730 729 729 729 731 733 735 737
788 789 790 791 792 793 794 795 796 797 797 798 799 799 800 800 800 801 801 802 802 802 801 801 800 799 799 798 797 796 796 794 793 792 791 790 788 787 784 783 781 779 776 774 773 772 769 766 763 761 759 755 750 745 741 738 737 735 734 732 731 730 730 730 729 727 726 726 726 726 729 732 734 737
787 787 788 789 791 792 793 793 794 795 795 796 797 797 798 798 799 799 800 800 800 800 799 799 798 797 797 796 796 794 793 792 791 790 789 788 786 785 783 780 778 776 775 773 772 770 768 766 763 760 757 755 751 746 742 738 735 733 732 729 727 726 726 726 725 724 723 723 723 723 723 725 727 731
785 786 787 788 789 790 791 792 793 794 794 794 795 796 796 797 798 798 798 798 798 798 797 797 796 796 795 795 793 792 791 791 790 789 788 786 785 783 781 779 777 775 773 772 770 769 767 765 763 759 756 753 750 746 742 738 734 732 730 728 725 723 723 722 721 720 720 720 720 719 719 720 722 724
784 785 786 786 788 788 789 790 791 792 792 793 793 794 794 795 796 796 796 796 796 796 796 796 795 795 794 793 792 791 790 790 789 788 787 785 784 782 780 778 775 773 772 771 769 768 766 764 762 759 755 752 748 745 742 738 733 730 727 725 723 721 719 718 718 717 717 717 717 716 717 717 718 721
782 783 783 784 786 787 787 788 789 790 791 791 792 792 793 793 794 794 794 794 794 795 795 795 794 794 793 792 791 790 790 789 789 788 787 785 783 781 779 777 774 772 771 770 768 767 765 763 761 759 755 751 747 743 740 737 734 730 727 725 723 721 718 717 716 715 714 714 713 714 714 714 715 718
777 779 780 781 783 784 785 786 787 787 788 789 790 791 791 792 792 792 792 793 793 794 794 794 793 793 792 791 790 790 789 789 788 787 786 785 783 781 779 776 774 773 771 769 768 766 765 763 761 758 755 752 747 743 740 737 736 734 731 727 724 721 719 717 715 714 713 712 712 712 712 713 714 716
772 774 775 777 779 780 781 782 783 785 786 788 788 789 789 790 791 791 791 792 792 792 793 793 792 791 791 790 790 789 789 788 787 786 785 784 782 780 778 776 775 773 771 769 767 766 764 762 760 757 754 751 747 744 741 740 738 736 734 730 726 722 719 717 714 713 712 711 710 711 712 714 715 717
768 770 772 773 775 777 778 779 781 783 784 785 786 787 788 788 789 789 790 790 791 791 792 791 791 790 790 790 789 789 788 788 786 785 784 783 782 780 778 776 775 773 771 769 767 766 764 762 760 757 753 750 747 743 741 741 740 738 735 732 728 724 720 717 715 713 711 710 709 710 712 714 716 718
765 767 769 770 772 775 777 779 780 781 782 783 784 785 786 787 788 788 788 788 789 790 790 790 790 789 789 789 788 788 787 786 785 784 783 782 781 779 777 776 775 773 772 770 767 766 764 762 760 758 754 750 747 744 743 742 742 741 738 734 729 725 722 718 716 714 712 710 709 710 712 714 717 720
762 763 765 767 771 774 776 778 779 780 780 781 782 783 785 786 787 787 787 787 789 789 789 788 789 788 788 788 788 787 786 785 784 783 782 781 780 779 778 777 775 773 771 769 768 766 764 762 761 760 757 753 750 747 745 745 744 743 740 736 731 726 723 720 717 715 713 712 712 712 713 715 719 722
761 762 763 764 766 769 773 776 779 779 779 780 781 783 784 785 786 787 787 788 788 788 788 788 788 788 788 787 786 785 784 784 783 782 781 780 780 779 778 777 776 774 771 769 768 766 765 764 762 761 759 756 754 751 749 747 745 744 741 738 733 729 725 723 720 718 717 716 715 716 717 719 722 725
763 765 767 766 765 765 768 773 776 778 778 779 780 782 784 785 786 786 787 787 787 787 788 788 788 788 787 786 785 784 783 783 782 781 780 780 780 780 779 777 776 774 771 769 768 766 765 764 763 762 761 759 757 755 753 751 749 747 745 741 736 732 729 726 724 723 721 720 720 720 722 725 728 731
763 766 769 769 768 767 769 772 775 776 777 778 780 782 784 785 786 786 786 787 787 787 788 788 788 787 786 785 784 783 782 782 781 780 780 780 779 779 779 777 775 773 771 770 768 767 766 766 765 763 762 761 759 758 756 754 752 751 748 744 739 735 732 730 728 727 726 725 725 725 727 729 732 736
764 766 768 768 768 769 771 773 774 775 776 778 781 783 784 785 785 786 785 786 787 787 787 787 787 786 785 784 783 782 781 781 780 780 779 779 779 779 778 777 775 773 771 770 769 768 767 767 766 764 762 761 760 758 756 754 753 752 751 748 744 740 737 734 732 731 731 731 730 729 731 733 735 739
764 766 767 768 769 771 773 774 774 775 777 779 781 783 784 785 785 785 785 786 787 787 786 786 786 785 784 783 783 782 781 780 779 779 779 778 778 777 777 776 774 772 771 770 769 768 768 767 765 764 762 761 759 758 757 756 755 755 754 752 749 746 742 740 738 736 736 736 735 735 735 737 739 742
764 766 768 769 770 772 773 774 775 777 779 781 782 784 784 785 785 784 784 785 786 785 784 784 784 784 783 783 782 781 780 779 779 778 778 778 777 776 775 775 774 772 771 770 769 768 767 767 765 764 763 762 760 759 758 757 757 756 756 754 753 750 748 745 744 742 741 740 741 740 740 740 741 743
766 767 769 770 771 772 773 775 776 778 780 782 784 784 785 785 785 784 784 785 784 784 783 783 783 782 781 781 781 780 779 779 779 778 777 777 777 776 775 774 773 771 770 769 768 767 767 766 766 765 763 762 762 761 760 759 758 757 757 756 755 753 752 750 749 747 746 745 745 745 745 745 745 746
768 769 770 771 772 773 775 777 778 779 781 783 784 785 785 785 785 785 785 785 784 784 783 782 781 780 780 780 780 779 779 779 778 777 776 776 775 774 774 773 772 771 770 769 767 767 766 765 765 765 764 763 763 762 761 760 759 758 758 757 757 756 755 754 753 752 751 750 750 750 750 750 750 751